STARLINK-31963, 59893

Orbit data source: Space-Track

STARLINK-31963, 59893 is a payload satellite owned by SpaceX/Seattle (US) in LEO that was launched on Tue, 28 May 2024 UTC via an FALCON 9 launch vehicle from the Air Force Eastern Test Range (AFETR). Payload-class satellites include a variety of spacecraft equipped with specific instruments for various scientific and technological missions. These include communications satellites like Starlink; space stations such as the ISS; scientific satellites like the Hubble; Earth observation satellites from companies like Planet Labs, Umbra, and HawkEye 360; GPS; miniature CubeSats for education and research; and military/defense satellites.

Loading next visibility...
Identifier
59893, 2024-100J
Orbit
LEO
Country
Flag of USUS
Related business
Manufacturer
SpaceX/Seattle
Mission
Operational spacecraft
Bus & Motor
STARLINK V2M, Unknown motor
Mass
730 kg wet, ~700 kg dry
Launch date (UTC)
2024-05-28 (1 year ago)
Launch vehicle
FALCON 9
Launch site
Air Force Eastern Test Range (AFETR)
Object type
Payload
Rocket body
Debris
Shape & HBR
Unknown
Radar Cross Section
Large (>1 m²)

Expand to show TLE details & history
Last TLE update: 23 hours ago

TLE from 23 hours ago
0 STARLINK-31963
1 59893U 24100J   25260.07763503  .00000301  00000-0  20492-4 0  9992
2 59893  43.0055  25.9965 0001804 270.0501  90.0144 15.27574419 74607
Epoch: 2025-09-17T01:51Z
TLE epoch observation values (Epoch: 2025-09-17T01:51:47.666Z)
Latitude
-0.00002°
Longitude
1.78911°
Altitude
482.842 km
Speed
7.626 km/s
True Right ascension
01h 43m 59s
True Declination
0° 00' 00"
Sunlit
Object was in full shadow at epoch
Visualization orbit readout
Latitude
Unknown
Longitude
Unknown
Altitude
Unknown
Speed
Unknown
Apparent Right ascension
Unknown
Apparent Declination
Unknown
Sunlit
N/A
Visualization observer readout
Local Sidereal Time
17:34:07
Azimuth
Unknown
Elevation
Unknown
Doppler factor
Unknown
Orbital elements
Apogee altitude
486.248 km
Perigee altitude
483.772 km
Semi-major axis
6,863.147 km
Eccentricity
0.00018
Inclination
43.0055°
RAAN
25.9965°
Arg. of periapsis
270.0501°
True anomaly
90.03507°
Mean anomaly
90.0144°
Eccentric anomaly
90.02474°
Mean motion
3.81732 °/min
Orbital period
94.31 mins
BSTAR
0.000020492
Loading maneuver chart data...
Computing Atmospheric mass density...
Loading historical data...
Loading historical data...
Loading historical data...
Loading historical data...
Loading historical data...
Loading historical data...
Loading historical data...

Documentation

Showing up to 5 results
|